[[{"header":{"parameterUnit":"m.s-1","parameterCategory":1,"la1":30.2991,"la2":30.254,"lo1":-89.0895,"lo2":-89.0444,"dy":0.0017,"dx":0.0017,"nx":28,"ny":28,"refTime":"2025-09-06T03:00:00:Z","depth":0,"parameterNumber":2,"parameterNumberName":"U-component_of_WINDS"},"data":[0,0,0,0,0,0,0,0,0,0,0,0,0,0,0,0,0,0,0,0,0,0,0,0,0,0,0,0,0,0,0,0,0,0,0,0,0,0,0,0,0,0,0,0,0,0,0,0,0,0,0,0,0,0,0,0,0,0,-0.733,-0.733,0,-0.7273,-0.7272,-0.7271,-0.7252,-0.7253,-0.7253,-0.7253,-0.7191,-0.7189,-0.7187,0,0,0,0,0,0,0,0,0,0,0,0,0,-0.742,-0.7418,-0.733,-0.733,-0.7329,-0.7273,-0.7272,-0.7271,-0.7252,-0.7253,-0.7253,-0.7253,-0.7191,-0.7189,-0.7187,0,0,0,0,0,0,0,0,0,0,0,0,0,-0.7373,-0.7418,-0.733,-0.7313,-0.7311,-0.7273,-0.7272,-0.7271,-0.7252,-0.7253,-0.7253,-0.7253,-0.7192,-0.7189,-0.7186,-0.7161,0,0,-0.7178,-0.7177,0,0,0,0,0,0,0,0,-0.7376,-0.737,-0.7316,-0.7314,-0.7311,-0.727,-0.7281,-0.7234,-0.7252,-0.7274,-0.7253,-0.7253,-0.7217,-0.7212,-0.72,-0.7158,-0.7156,-0.7177,-0.7176,-0.7175,-0.7174,0,0,0,0,0,0,0,-0.7379,-0.7372,-0.7307,-0.7315,-0.7312,-0.7306,-0.73,-0.7272,-0.7244,-0.7272,-0.7271,-0.7264,-0.7215,-0.7203,-0.7198,-0.7155,-0.7178,-0.7175,-0.7173,-0.7172,-0.7087,-0.7087,0,0,0,0,0,0,-0.7386,-0.7375,-0.7309,-0.7306,-0.7345,-0.7304,-0.7297,-0.7283,-0.7244,-0.7239,-0.7264,-0.7264,-0.7207,-0.7202,-0.7196,-0.7163,-0.7175,-0.7172,-0.717,-0.7088,-0.7087,-0.7086,0,0,0,0,0,0,-0.7388,-0.738,-0.7312,-0.734,-0.7331,-0.7302,-0.7286,-0.7282,-0.7269,-0.7238,-0.7233,-0.7257,-0.7208,-0.72,-0.717,-0.716,-0.7171,-0.7168,-0.7088,-0.7088,-0.7087,-0.7097,0,0,0,0,0,0,-0.7391,-0.7381,-0.7372,-0.734,-0.7329,-0.7288,-0.7286,-0.728,-0.7265,-0.7264,-0.723,-0.7224,-0.7207,-0.7174,-0.7167,-0.7157,-0.7166,-0.7089,-0.7088,-0.7087,-0.7097,-0.7096,-0.7096,0,0,0,0,0,-0.7394,-0.7377,-0.7372,-0.7364,-0.7318,-0.7287,-0.7281,-0.7263,-0.7264,-0.7254,-0.7234,-0.7225,-0.7163,-0.7171,-0.7163,-0.7152,-0.709,-0.7088,-0.7087,-0.7097,-0.7096,-0.7096,0,0,0,0,0,0,-0.7408,-0.7372,-0.7367,-0.7339,-0.7316,-0.7284,-0.7271,-0.7262,-0.7238,-0.7238,-0.7215,-0.7208,-0.7179,-0.7162,-0.7172,-0.7124,-0.7125,-0.7123,-0.7136,-0.7135,-0.7134,-0.7138,-0.7163,0,0,0,0,0,-0.7408,-0.7387,-0.7357,-0.7335,-0.7324,-0.73,-0.7286,-0.7274,-0.7249,-0.7239,-0.7216,-0.7191,-0.7166,-0.715,-0.7124,-0.7095,-0.7086,-0.7082,-0.7082,-0.7081,-0.7079,-0.706,-0.7057,-0.7082,-0.7082,-0.7082,0,0,-0.7408,-0.7386,-0.7374,-0.7338,-0.7319,-0.7296,-0.7292,-0.7268,-0.7251,-0.7235,-0.7205,-0.7187,-0.7158,-0.7127,-0.7113,-0.7112,-0.707,-0.708,-0.708,-0.7077,-0.7058,-0.7056,-0.7054,-0.7082,-0.7082,-0.7082,0,0,-0.7395,-0.7377,-0.7357,-0.7338,-0.731,-0.7293,-0.7288,-0.7257,-0.7245,-0.7215,-0.7202,-0.718,-0.7137,-0.7116,-0.71,-0.7078,-0.7069,-0.707,-0.7066,-0.7048,-0.7046,-0.7044,-0.7035,-0.7033,-0.7068,-0.7068,-0.7068,0,-0.7398,-0.7365,-0.7347,-0.7324,-0.7308,-0.7293,-0.7271,-0.7253,-0.7217,-0.7206,-0.7206,-0.7151,-0.713,-0.7094,-0.7089,-0.7077,-0.7069,-0.7074,-0.7048,-0.7046,-0.7044,-0.7035,-0.7032,-0.7069,-0.7068,-0.7068,-0.7068,0,-0.7369,-0.7346,-0.7333,-0.73,-0.7282,-0.726,-0.7237,-0.722,-0.721,-0.7193,-0.7161,-0.7135,-0.7104,-0.7095,-0.7084,-0.7056,-0.7056,-0.7053,-0.7054,-0.7042,-0.7033,-0.703,-0.7069,-0.7069,-0.7069,-0.7069,0,0,-0.7364,-0.7321,-0.7317,-0.7301,-0.7268,-0.7249,-0.7225,-0.7195,-0.7181,-0.7157,-0.7135,-0.7098,-0.7095,-0.7076,-0.7062,-0.7047,-0.7029,-0.7045,-0.7044,-0.7042,-0.6995,-0.6997,-0.6994,-0.7023,-0.7022,-0.7022,-0.6997,0,-0.7347,-0.7305,-0.7288,-0.7254,-0.7231,-0.7216,-0.7195,-0.7171,-0.7154,-0.7132,-0.7112,-0.7086,-0.7084,-0.7073,-0.7056,-0.7035,-0.7019,-0.7037,-0.7001,-0.7,-0.7008,-0.6989,-0.6992,-0.697,-0.6994,-0.6993,-0.6993,0,-0.7321,-0.7298,-0.7261,-0.723,-0.722,-0.7201,-0.7172,-0.7151,-0.7123,-0.7112,-0.7091,-0.7078,-0.705,-0.7053,-0.7014,-0.7026,-0.701,-0.6997,-0.6996,-0.6991,-0.6995,-0.6983,-0.6963,-0.6959,-0.6987,-0.6988,-0.6988,0,-0.732,-0.7279,-0.7251,-0.7238,-0.7201,-0.7188,-0.7172,-0.7145,-0.7128,-0.7101,-0.709,-0.706,-0.7044,-0.7021,-0.6999,-0.7004,-0.6961,-0.6963,-0.695,-0.695,-0.6941,-0.6942,-0.6917,-0.6933,-0.6933,-0.6933,-0.6933,0,-0.7302,-0.728,-0.725,-0.7233,-0.7207,-0.7187,-0.7161,-0.7144,-0.7119,-0.7097,-0.7082,-0.7061,-0.7035,-0.701,-0.6993,-0.6962,-0.6955,-0.6944,-0.6939,-0.6945,-0.6946,-0.6934,-0.6934,-0.6932,-0.6932,-0.6932,-0.6932,0,-0.7296,-0.7276,-0.7244,-0.7212,-0.7203,-0.7185,-0.7156,-0.7138,-0.7121,-0.7093,-0.7085,-0.7056,-0.7026,-0.7003,-0.6964,-0.6952,-0.6919,-0.6915,-0.6929,-0.6926,-0.6914,-0.6915,-0.6879,-0.6872,-0.6894,-0.6894,-0.6894,0,-0.7286,-0.7268,-0.7234,-0.7219,-0.7203,-0.7178,-0.7161,-0.7139,-0.7121,-0.7088,-0.7073,-0.7042,-0.7016,-0.6969,-0.6944,-0.6913,-0.6907,-0.6897,-0.6902,-0.6908,-0.6905,-0.6906,-0.6904,-0.6896,-0.6896,-0.6896,-0.6896,0,-0.7269,-0.7259,-0.7235,-0.7207,-0.7187,-0.7163,-0.7139,-0.7127,-0.7101,-0.7081,-0.7051,-0.7031,-0.6991,-0.696,-0.6926,-0.6908,-0.6896,-0.6894,-0.6889,-0.6894,-0.6902,-0.6896,-0.6926,-0.6895,-0.6895,-0.6895,-0.6895,-0.6895,-0.7259,-0.7243,-0.7216,-0.7189,-0.7169,-0.7146,-0.7128,-0.7107,-0.7082,-0.7049,-0.7037,-0.7005,-0.6976,-0.693,-0.6911,-0.6885,-0.6884,-0.6877,-0.6875,-0.6874,-0.6873,-0.6907,-0.6879,-0.6879,-0.6879,-0.6879,-0.6879,0,-0.724,-0.7222,-0.7198,-0.7165,-0.7143,-0.7136,-0.7109,-0.7091,-0.7064,-0.7038,-0.7013,-0.6977,-0.6946,-0.6919,-0.6886,-0.687,-0.6864,-0.6862,-0.6863,-0.6858,-0.6877,-0.6884,-0.6868,-0.6868,-0.6868,-0.6868,-0.6868,-0.6868,-0.7228,-0.7199,-0.7186,-0.7146,-0.7128,-0.7098,-0.7082,-0.7061,-0.704,-0.7001,-0.6976,-0.6959,-0.6931,-0.6897,-0.6867,-0.686,-0.6848,-0.6847,-0.6838,-0.6856,-0.6857,-0.6858,-0.6865,-0.6845,-0.6845,-0.6822,-0.6821,-0.6821]},{"header":{"parameterUnit":"m.s-1","parameterCategory":1,"la1":30.2991,"la2":30.254,"lo1":-89.0895,"lo2":-89.0444,"dy":0.0017,"dx":0.0017,"nx":28,"ny":28,"refTime":"2025-09-06T03:00:00:Z","depth":0,"parameterNumber":3,"parameterNumberName":"V-component_of_WINDS"},"data":[0,0,0,0,0,0,0,0,0,0,0,0,0,0,0,0,0,0,0,0,0,0,0,0,0,0,0,0,0,0,0,0,0,0,0,0,0,0,0,0,0,0,0,0,0,0,0,0,0,0,0,0,0,0,0,0,0,0,-3.7811,-3.7811,0,-3.7814,-3.7814,-3.7814,-3.7844,-3.7844,-3.7845,-3.7846,-3.7842,-3.7841,-3.7841,0,0,0,0,0,0,0,0,0,0,0,0,0,-3.7826,-3.7826,-3.7811,-3.7811,-3.7811,-3.7814,-3.7814,-3.7814,-3.7843,-3.7844,-3.7845,-3.7846,-3.7842,-3.7841,-3.784,0,0,0,0,0,0,0,0,0,0,0,0,0,-3.7823,-3.7826,-3.7811,-3.7826,-3.7828,-3.7814,-3.7814,-3.7814,-3.7843,-3.7844,-3.7845,-3.7847,-3.7843,-3.7842,-3.784,-3.781,0,0,-3.7837,-3.7836,0,0,0,0,0,0,0,0,-3.7823,-3.7823,-3.7824,-3.7825,-3.7827,-3.783,-3.7818,-3.7813,-3.7843,-3.7837,-3.7846,-3.7847,-3.7837,-3.7836,-3.7834,-3.781,-3.781,-3.7837,-3.7836,-3.7835,-3.7835,0,0,0,0,0,0,0,-3.7824,-3.7823,-3.7812,-3.7824,-3.7826,-3.7832,-3.7832,-3.7817,-3.783,-3.7838,-3.784,-3.784,-3.7838,-3.7835,-3.7834,-3.781,-3.7837,-3.7836,-3.7835,-3.7834,-3.7763,-3.7762,0,0,0,0,0,0,-3.7823,-3.7823,-3.7812,-3.7812,-3.7828,-3.783,-3.7831,-3.7828,-3.7831,-3.7832,-3.7839,-3.7842,-3.7836,-3.7835,-3.7834,-3.78,-3.7835,-3.7834,-3.7833,-3.7765,-3.7763,-3.7762,0,0,0,0,0,0,-3.7823,-3.7821,-3.7812,-3.7818,-3.7817,-3.7829,-3.7824,-3.7827,-3.7825,-3.7832,-3.7834,-3.7834,-3.7837,-3.7836,-3.7817,-3.7801,-3.7834,-3.7833,-3.7766,-3.7764,-3.7762,-3.7732,0,0,0,0,0,0,-3.7823,-3.7821,-3.7811,-3.7818,-3.7817,-3.7796,-3.7823,-3.7826,-3.7823,-3.7826,-3.7828,-3.7829,-3.7838,-3.7818,-3.7816,-3.7799,-3.7832,-3.7767,-3.7765,-3.7763,-3.7734,-3.7729,-3.7725,0,0,0,0,0,-3.7824,-3.78,-3.781,-3.7809,-3.7805,-3.7795,-3.7794,-3.7807,-3.7822,-3.7811,-3.7816,-3.7829,-3.7803,-3.7816,-3.7813,-3.7796,-3.7768,-3.7766,-3.7763,-3.7736,-3.773,-3.7725,0,0,0,0,0,0,-3.7788,-3.7801,-3.7812,-3.7791,-3.7792,-3.78,-3.7786,-3.78,-3.7795,-3.7797,-3.7811,-3.7812,-3.7791,-3.7792,-3.7806,-3.7769,-3.7788,-3.7785,-3.7769,-3.7763,-3.7758,-3.7758,-3.7831,0,0,0,0,0,-3.7778,-3.7771,-3.7782,-3.7762,-3.7762,-3.7774,-3.7771,-3.7781,-3.7781,-3.7781,-3.7785,-3.7783,-3.7775,-3.7769,-3.7761,-3.7735,-3.7736,-3.7722,-3.7717,-3.7713,-3.771,-3.7697,-3.7692,-3.7753,-3.7753,-3.7753,0,0,-3.7756,-3.7763,-3.7757,-3.7755,-3.7757,-3.7748,-3.7774,-3.7763,-3.7757,-3.7779,-3.7762,-3.7765,-3.7764,-3.7742,-3.7732,-3.7742,-3.7694,-3.771,-3.7707,-3.7706,-3.7694,-3.7688,-3.7683,-3.7752,-3.7752,-3.7752,0,0,-3.7713,-3.7717,-3.7702,-3.7704,-3.7708,-3.7717,-3.7713,-3.772,-3.7724,-3.7708,-3.7725,-3.7716,-3.7701,-3.7701,-3.7698,-3.7658,-3.767,-3.7655,-3.763,-3.7618,-3.7613,-3.7609,-3.7595,-3.759,-3.7652,-3.7652,-3.7652,0,-3.7685,-3.7675,-3.7692,-3.7681,-3.768,-3.7702,-3.7687,-3.7687,-3.7687,-3.7685,-3.7697,-3.7681,-3.7682,-3.766,-3.7651,-3.7648,-3.7644,-3.7654,-3.7612,-3.7608,-3.7605,-3.7592,-3.7586,-3.765,-3.765,-3.765,-3.765,0,-3.7641,-3.7633,-3.762,-3.7623,-3.762,-3.7607,-3.7621,-3.7616,-3.7627,-3.7634,-3.7618,-3.762,-3.7615,-3.7611,-3.7619,-3.7591,-3.7597,-3.761,-3.763,-3.7597,-3.7585,-3.758,-3.7647,-3.7648,-3.7649,-3.7649,0,0,-3.7573,-3.7588,-3.7583,-3.7586,-3.7593,-3.7587,-3.7574,-3.7572,-3.7567,-3.7567,-3.7557,-3.7545,-3.7559,-3.7556,-3.7565,-3.7554,-3.7524,-3.7569,-3.7569,-3.7561,-3.7493,-3.7484,-3.7478,-3.7532,-3.7531,-3.7531,-3.7494,0,-3.7532,-3.7514,-3.753,-3.7509,-3.7502,-3.7525,-3.7514,-3.7517,-3.7524,-3.7518,-3.7525,-3.7517,-3.7534,-3.7533,-3.7524,-3.7529,-3.751,-3.7532,-3.7522,-3.7521,-3.7522,-3.7471,-3.746,-3.7425,-3.7489,-3.7488,-3.7488,0,-3.7481,-3.7483,-3.7461,-3.7472,-3.747,-3.746,-3.746,-3.7455,-3.7459,-3.7464,-3.7463,-3.7476,-3.7464,-3.7484,-3.7468,-3.7483,-3.7479,-3.7482,-3.7481,-3.748,-3.7502,-3.7469,-3.7414,-3.7409,-3.748,-3.7481,-3.7481,0,-3.7435,-3.7431,-3.7419,-3.742,-3.7432,-3.7425,-3.7429,-3.7434,-3.7432,-3.7432,-3.7431,-3.7427,-3.7426,-3.7422,-3.7434,-3.7448,-3.7416,-3.7437,-3.742,-3.742,-3.7412,-3.7412,-3.7356,-3.7409,-3.7409,-3.741,-3.741,0,-3.7388,-3.7374,-3.7399,-3.739,-3.7376,-3.7394,-3.7379,-3.7385,-3.739,-3.7383,-3.7401,-3.7394,-3.741,-3.7404,-3.7413,-3.7398,-3.7397,-3.7401,-3.7403,-3.7399,-3.7399,-3.7397,-3.74,-3.7408,-3.7409,-3.7409,-3.7409,0,-3.7333,-3.7349,-3.7337,-3.7351,-3.7354,-3.7343,-3.7354,-3.7347,-3.7356,-3.7347,-3.7346,-3.7359,-3.7354,-3.7366,-3.736,-3.7366,-3.7346,-3.7352,-3.7346,-3.7348,-3.7331,-3.7332,-3.7271,-3.7264,-3.7322,-3.7321,-3.7321,0,-3.7302,-3.7293,-3.7307,-3.7305,-3.731,-3.7305,-3.7305,-3.7323,-3.7321,-3.7326,-3.7318,-3.7315,-3.7313,-3.7302,-3.7311,-3.7307,-3.7313,-3.7292,-3.7313,-3.731,-3.7314,-3.7315,-3.7314,-3.7288,-3.7287,-3.7287,-3.7286,0,-3.7246,-3.7255,-3.7254,-3.7257,-3.7256,-3.7259,-3.7262,-3.7259,-3.7278,-3.7275,-3.7271,-3.727,-3.7267,-3.7263,-3.7262,-3.7265,-3.7278,-3.728,-3.7276,-3.7272,-3.7269,-3.7271,-3.7335,-3.7281,-3.7281,-3.7282,-3.7282,-3.7282,-3.7202,-3.7196,-3.7206,-3.7205,-3.721,-3.7213,-3.7208,-3.7218,-3.7216,-3.7217,-3.7227,-3.7221,-3.7226,-3.7227,-3.7229,-3.7224,-3.7233,-3.7227,-3.7225,-3.7224,-3.7222,-3.727,-3.7223,-3.7224,-3.7224,-3.7224,-3.7224,0,-3.7147,-3.7156,-3.7155,-3.7161,-3.716,-3.7176,-3.7181,-3.7179,-3.7175,-3.718,-3.7179,-3.7175,-3.7172,-3.7181,-3.718,-3.7174,-3.718,-3.7173,-3.7173,-3.7174,-3.7213,-3.7217,-3.7168,-3.7168,-3.7168,-3.7168,-3.7168,-3.7168,-3.7119,-3.7109,-3.712,-3.7113,-3.7121,-3.7118,-3.7119,-3.7122,-3.7127,-3.7122,-3.7121,-3.7129,-3.7135,-3.7135,-3.7133,-3.7135,-3.7134,-3.7124,-3.7129,-3.7165,-3.7171,-3.7176,-3.718,-3.7124,-3.7124,-3.7091,-3.7091,-3.709]}]]